Regional Weather Roundup
Issued by NWS

Home | Current Version | Previous Version | Text Only | Print | Product List | Glossary Off
Versions: 1 2 3 4 5 6 7 8 9 10 11 12 13 14 15 16 17 18 19 20 21 22 23 24 25 26 27 28 29 30 31 32 33 34 35 36 37 38 39 40 41 42 43 44 45 46 47 48 49 50

000
ASUS43 KLOT 261103
RWRIL

ILLINOIS REGIONAL WEATHER ROUNDUP
NATIONAL WEATHER SERVICE CHICAGO/ROMEOVILLE IL
600 AM CDT THU APR 26 2018

NOTE: "FAIR" INDICATES FEW OR NO CLOUDS BELOW 12,000 FEET WITH NO
SIGNIFICANT WEATHER AND/OR OBSTRUCTIONS TO VISIBILITY.

* THESE STATIONS ARE NOT UNDER NWS QUALITY CONTROL. THEY ALSO MAY NOT
  REPORT WEATHER SUCH AS PRECIPITATION OR FOG.

ILZ001-002-007-009-015-016-024-261200-
NORTHWEST ILLINOIS

CITY           SKY/WX    TMP DP  RH WIND       PRES   REMARKS
MOLINE         FAIR      33  29  85 E3        29.95S
STERLING*      FAIR      33  30  88 CALM      29.96F
SAVANNA*       FAIR      32  29  89 E3        29.96S
$$

ILZ003-004-008-010-011-017-018-261200-
NORTH CENTRAL ILLINOIS

CITY           SKY/WX    TMP DP  RH WIND       PRES   REMARKS
ROCKFORD       FAIR      32  27  81 CALM      29.97S
FREEPORT*      FAIR      32  28  85 CALM      29.97S
ROCHELLE*      FAIR      28  25  89 CALM      29.96S
DE KALB*       FAIR      33  28  82 CALM      29.96S
$$

ILZ005-006-012>014-019>023-261200-
NORTHEAST ILLINOIS

CITY           SKY/WX    TMP DP  RH WIND       PRES   REMARKS
CHICAGO-OHARE  FAIR      36  29  75 W3        29.95S
CHICAGO-MIDWAY FAIR      38  30  73 CALM      29.96R
AURORA         FAIR      28  24  85 CALM      29.96S
LANSING*       FAIR      31  30  96 CALM      29.96S
JOLIET*        FAIR      32  31  94 CALM      29.97S
WAUKEGAN       FAIR      33  30  88 W6        29.95S WCI  28
DUPAGE AIRPORT FAIR      32  30  92 CALM      29.95S
KANKAKEE*      FAIR      33  29  87 NW5       29.95S WCI  28
WHEELING       FAIR      35  30  82 CALM      29.97S
MORRIS*        FAIR      31  28  86 N5        29.96R WCI  27
ROMEOVILLE*    FAIR      34  32  91 CALM      29.96S
NORTHERLY ISL    N/A     40  30  68 W2          N/A
$$

LMZ740>746-261200-
SOUTHERN LAKE MICHIGAN

STATION/POSITION SKY/WX   TEMP    WIND        PRES    VSBY  WAVE
                          AIR SEA DIR/SP/G                  HT/PER
                          (F)     (DEG/KT/KT) (MB)    (MI)  (FT/S)
HARRISON CRIB              42     310/  5/  6   N/A
BURNHAM HARBOR             40      CALM  /  3   N/A
CALUMET HARBOR             38     270/  2/  3 1013.9
BURNS HARBOR               40      10/  4/  5 1014.9S
MICHIGAN CITY              38     350/  7/  8   N/A
ST. JOSEPH                 40 42  250/  6/  8 1015.2R         2/ 5
$$

ILZ025>027-034>036-040-047-049-050-058-095>099-261200-
WEST-CENTRAL ILLINOIS

CITY           SKY/WX    TMP DP  RH WIND       PRES   REMARKS
QUINCY         CLEAR     47  38  71 E3        29.93S
GALESBURG*     FAIR      39  34  82 SE3       29.96S
MACOMB*        CLEAR     34  31  88 E3        29.97R
JACKSONVILLE*  CLEAR     37  32  81 E5        29.94S WCI  33
PITTSFIELD*    CLEAR     43  37  80 NE3       29.94S
$$

ILZ028>032-037-038-041>044-048-051>054-059>061-261200-
CENTRAL ILLINOIS

CITY           SKY/WX    TMP DP  RH WIND       PRES   REMARKS
PONTIAC        FAIR      33  32  97 CALM      29.96S
BLOOMINGTON    FAIR      37  27  67 SE5       29.96R WCI  33
DECATUR        FAIR      32  29  88 NE6       29.94S WCI  26
PEORIA         FAIR      36  30  79 CALM      29.96S
LACON*         FAIR      32  29  88 CALM      29.95F
LINCOLN*       FAIR      34  32  92 NE3       29.94F
SPRINGFIELD    FAIR      39  33  79 NE3       29.95S
TAYLORVILLE    FAIR      40  32  73 CALM      29.94S
$$

ILZ033-039-045-046-055>057-062-063-261200-
EAST-CENTRAL ILLINOIS

CITY           SKY/WX    TMP DP  RH WIND       PRES   REMARKS
CHAMPAIGN      FAIR      38  28  67 NE8       29.94S WCI  32
DANVILLE*      FAIR      32  30  92 CALM      29.93R
RANTOUL*       FAIR      35  32  88 CALM      29.95R
MATTOON        FAIR      38  33  82 NE7       29.92S WCI  33
PARIS*         FAIR      34  32  90 CALM      29.94S
$$

ILZ079-100>102-261200-
SOUTHWEST ILLINOIS

CITY           SKY/WX    TMP DP  RH WIND       PRES   REMARKS
ALTON          CLOUDY    48  43  83 NE5       29.93R
BELLEVILLE     CLOUDY    52  44  75 NE5       29.90R
CAHOKIA*       CLOUDY    51  50  96 CALM      29.90S FOG
SPARTA*        CLOUDY    52  52 100 CALM      29.91S FOG
$$

ILZ064>066-069>071-074>076-080>082-084>086-088>090-092>094-261200-
SOUTH-CENTRAL ILLINOIS

CITY           SKY/WX    TMP DP  RH WIND       PRES   REMARKS
CARBONDALE     CLOUDY    52  48  86 NE3       29.89R
CAIRO*         CLOUDY    55  53  94 CALM      29.87R
EFFINGHAM*     FAIR      45  37  73 CALM      29.94S
MARION         CLOUDY    50  43  77 N5        29.90R
MT. VERNON     CLOUDY    51  37  58 NE8       29.90R
CENTRALIA*     CLOUDY    51  39  63 NE8       29.90S
SALEM*         MOCLDY    50  36  60 NE3       29.91S
METROPOLIS*    CLOUDY    55  48  79 NE5       29.87R
$$

ILZ067-068-072-073-078-083-087-091-261200-
SOUTHEAST ILLINOIS

CITY           SKY/WX    TMP DP  RH WIND       PRES   REMARKS
LAWRENCEVILLE  FAIR      45  35  68 MISG      29.92S
FLORA*         FAIR      44  39  85 CALM      29.92S
FAIRFIELD*     CLOUDY    50  36  58 NE5       29.90R
HARRISBURG*    CLOUDY    52  43  70 NE5       29.90R
ROBINSON*      FAIR      43  35  72 N5        29.93S
CARMI*         CLOUDY    51  39  62 NE6       29.89S
$$

ABBREVIATIONS USED IN REMARKS
   TC - TEMPERATURE IN CELSIUS
  WCI - WIND CHILL INDEX
   HX - HEAT INDEX
  VSB - VISIBILITY
$$





USA.gov is the U.S. government's official web portal to all federal, state and local government web resources and services.